Regional Weather Roundup
Issued by NWS

Home | Current Version | Previous Version | Text Only | Print | Product List | Glossary Off
Versions: 1 2 3 4 5 6 7 8 9 10 11 12 13 14 15 16 17 18 19 20 21 22 23 24 25 26 27 28 29 30 31 32 33 34 35 36 37 38 39 40 41 42 43 44 45 46 47 48

000
ASUS45 KCYS 290110
RWRWY

WYOMING REGIONAL WEATHER ROUNDUP
NATIONAL WEATHER SERVICE CHEYENNE WY
600 PM MST FRI NOV 28 2014

NOTE:  "FAIR" INDICATES FEW OR NO CLOUDS BELOW 12,000 FEET
WITH NO SIGNIFICANT WEATHER AND/OR OBSTRUCTIONS TO VISIBILITY.

WYZ001-290200-
YELLOWSTONE NATIONAL PARK

CITY           SKY/WX    TMP DP  RH WIND       PRES   REMARKS
LK YELLOWSTONE   N/A     38  10  31 VRB6      29.73F WCI  33
W YELLOWSTONE  NOT AVBL

$$
WYZ002>013-054>058-071-098>099-290200-
NORTHERN WYOMING

CITY           SKY/WX    TMP DP  RH WIND       PRES   REMARKS
JACKSON        CLEAR     43  18  36 S18G30    29.75F
CODY           PTCLDY    43  21  42 SW12      29.59F
GREYBULL       MOCLDY    41  28  60 VRB6      29.59F
WORLAND        MOCLDY    44  26  49 SE14      29.61F
SHERIDAN       MOCLDY    53  22  29 E5        29.52F
BUFFALO        MOCLDY    53  19  26 SW31G43   29.55F
GILLETTE       MOCLDY    50  25  37 SW22G35   29.57F
HULETT           N/A    N/A N/A N/A MISG        N/A
NEWCASTLE      FAIR      37  28  70 N8        29.65S WCI  31

$$
WYZ014>020-022>026-101>103-290200-
CENTRAL WYOMING

CITY           SKY/WX    TMP DP  RH WIND       PRES   REMARKS
BIG PINEY      MOCLDY    38  13  35 W10       29.86F WCI  31
PINEDALE       CLOUDY    34  21  60 CALM      29.87F
DUBOIS         FAIR      41  10  28 NW12G17   29.73F
LANDER         PTCLDY    54   7  15 W22G32    29.72F
RIVERTON       PTCLDY    51  12  21 W15       29.74F
CASPER         MOCLDY    49  16  26 SW13      29.73S
DOUGLAS        MOCLDY    55  16  21 W24G32    29.72S

$$
WYZ021-027>030-104>119-290200-
SOUTHERN WYOMING

CITY           SKY/WX    TMP DP  RH WIND       PRES   REMARKS
EVANSTON       PTCLDY    43  17  35 SW16      29.91F
ROCK SPRINGS   CLEAR     43  10  26 W10       29.89F
DIXON          FAIR      41  20  43 W3        29.98F
RAWLINS        CLEAR     47  13  25 SW20G29   29.86F
SARATOGA       FAIR      36  18  48 S12       29.93F WCI  27
LARAMIE        MOCLDY    45  12  26 SW16      29.89S
CHEYENNE       MOCLDY    51  13  21 W18       29.83F
TORRINGTON     MOCLDY    57  16  20 W14       29.71F
PINE BLUFFS    FAIR      46  16  29 CALM      29.81F

$$



USA.gov is the U.S. government's official web portal to all federal, state and local government web resources and services.